Flag for U.S.A. Weather past 2 weeks in Boston, Massachusetts, U.S.A.

Now
73 °F

Overcast.


Feels Like: 74 °F
Forecast: 66 / 75 °F
Wind: 9 mph from North

Location: Logan International Airport

Current Time: Jul 24, 2014 at 9:48:09 AM

Latest Report: Jul 24, 2014 at 9:01 AM


Visibility: 10 mi

Pressure: 29.80 "Hg

Humidity: 78%

Dew point: 66 °F

Location of BostonLocation

Historic Weather in Boston — Graph

°F

Boston temperature yesterday

Maximum temperature yesterday: 91 °F (at 2:54 PM)
Minimum temperature yesterday: 71 °F (at 5:54 AM)
Average temperature yesterday: 80 °F

Past Weeks' High & Low Weather Summary

 TemperatureHumidityPressure
High91 °F (Jul 23, 2:54 PM)97% (Jul 14, 8:54 PM)30.27 "Hg (Jul 14, 8:54 PM)
Low61 °F (Jul 20, 3:54 AM)38% (Jul 10, 2:54 PM)29.74 "Hg (Jul 23, 4:54 PM)
Average73 °F72%30.02 "Hg
* Reported Jul 9 8:54 AM — Jul 24 7:54 AM, Boston, Weather by CustomWeather, © 2014

Note: Actual official high and low records may vary slightly from our data, if they occured in-between our weather recording intervals... More about our weather records

Advertising

Boston weather history for previous 24 hours

 ConditionsComfort  
Time TempWeatherWind HumidityBarometerVisibility
7:54 AM
Jul 24
74 °FBroken clouds.10 mph74%29.78 "Hg10 mi
6:54 AM74 °FBroken clouds.10 mph76%29.78 "Hg10 mi
5:54 AM74 °FMostly cloudy.13 mph79%29.78 "Hg10 mi
4:54 AM74 °FMostly cloudy.7 mph82%29.76 "Hg10 mi
3:54 AM74 °FOvercast.3 mph82%29.75 "Hg10 mi
2:54 AM75 °FMostly cloudy.6 mph76%29.75 "Hg10 mi
1:54 AM73 °FPartly cloudy.5 mph81%29.76 "Hg10 mi
12:54 AM73 °FPartly cloudy.5 mph79%29.75 "Hg10 mi
11:54 PM
Jul 23
77 °FPartly cloudy.5 mph69%29.78 "Hg10 mi
10:54 PM78 °FPassing clouds.14 mph74%29.79 "Hg10 mi
9:54 PM78 °FPartly cloudy.13 mph74%29.78 "Hg10 mi
8:54 PM78 °FPartly sunny.15 mph71%29.78 "Hg10 mi
7:54 PM79 °FPartly sunny.14 mph69%29.75 "Hg10 mi
6:54 PM82 °FPartly sunny.14 mph67%29.75 "Hg10 mi
4:54 PM88 °FScattered clouds.15 mph59%29.74 "Hg10 mi
3:54 PM87 °FScattered clouds.16 mph59%29.75 "Hg10 mi
2:54 PM91 °FScattered clouds.17 mph49%29.78 "Hg10 mi
1:54 PM90 °FScattered clouds.17 mph52%29.80 "Hg10 mi
12:54 PM88 °FScattered clouds.16 mph55%29.83 "Hg10 mi
11:54 AM87 °FScattered clouds.14 mph57%29.85 "Hg10 mi
10:54 AM85 °FScattered clouds.13 mph59%29.87 "Hg10 mi
9:54 AM81 °FScattered clouds.14 mph65%29.89 "Hg10 mi
Weather by CustomWeather, © 2014

See weather overviewHow to use our weather pages